Location: Dos Palmas
(32.4468°N, 116.8732°W)
Time: 12:50:06
(UTC+00:00)

ARIANE 5 R/B - Pass Details

Date: 20 June 2021
Orbit: 748 x 795 km, 98.7° (Epoch: 30 July)

Event Time Altitude Azimuth Distance (km) Brightness Sun altitude
Rises 11:18:22 0° 5° (N) 3,199 6.5 -15.1°
Reaches altitude 10° 11:20:42 10° 1° (N) 2,273 5.5 -14.7°
Maximum altitude 11:25:30 49° 287° (WNW) 962 2.8 -13.9°
Enters shadow 11:28:54 19° 219° (SW) 1,749 3.7 -13.4°
